,,,PA_Meas_PMT16A,,PR_Meas_QMR101_102,,RH_Meas_QMH101,,SR_Meas_QMS101,,TA_Meas_QMH101,,GenWind,,GenWind,
date,time,status,PA,status,PR,status,RH,status,SR,status,TA,status,DirAvg,status,SpdAvg,
2011-02-24, 00:00:04,VALID,1004.17,VALID,0.5,INVALID,163.777,VALID,0,VALID,22.81,VALID,302,VALID,0.380859,
2011-02-24, 00:01:04,VALID,1004.14,VALID,0,INVALID,163.769,VALID,0,VALID,22.7888,VALID,301,VALID,0.546484,
2011-02-24, 00:02:04,VALID,1004.13,VALID,0,INVALID,163.777,VALID,0,VALID,22.7871,VALID,303,VALID,0.430469,
2011-02-24, 00:03:04,VALID,1004.09,VALID,0,INVALID,163.8,VALID,0,VALID,22.8083,VALID,326,VALID,0.435156,
2011-02-24, 00:04:04,VALID,1004.08,VALID,0,INVALID,163.784,VALID,0,VALID,22.8489,VALID,277,VALID,0.254687,
2011-02-24, 00:05:04,VALID,1004.08,VALID,0,INVALID,163.754,VALID,0,VALID,22.826,VALID,277,VALID,0.435156,
2011-02-24, 00:06:04,VALID,1004.05,VALID,0,INVALID,163.784,VALID,0,VALID,22.8278,VALID,289,VALID,0.00625,
2011-02-24, 00:07:04,VALID,1004.03,VALID,0,INVALID,163.8,VALID,0,VALID,22.8278,VALID,291,VALID,0.345703,
2011-02-24, 00:08:04,VALID,1003.95,VALID,0,INVALID,163.769,VALID,0,VALID,22.8472,VALID,290,VALID,0.705469,
2011-02-24, 00:09:05,VALID,1003.93,VALID,0,INVALID,163.777,VALID,0,VALID,22.8455,VALID,313,VALID,0.615625,
2011-02-24, 00:10:05,VALID,1003.9,VALID,0.5,INVALID,163.762,VALID,0,VALID,22.8455,VALID,321,VALID,0.620703,
2011-02-24, 00:11:05,VALID,1003.87,VALID,0,INVALID,163.769,VALID,0,VALID,22.8667,VALID,298,VALID,0.559375,
2011-02-24, 00:12:05,VALID,1003.86,VALID,0,INVALID,163.792,VALID,0,VALID,22.8861,VALID,244,VALID,1.08516,
2011-02-24, 00:13:05,VALID,1003.83,VALID,0,INVALID,163.784,VALID,0,VALID,22.9251,VALID,263,VALID,0.728516,
2011-02-24, 00:14:05,VALID,1003.75,VALID,0,INVALID,163.777,VALID,0,VALID,22.9622,VALID,215,VALID,0.603125,
2011-02-24, 00:15:05,VALID,1003.77,VALID,0,INVALID,163.769,VALID,0,VALID,23.0029,VALID,295,VALID,1.0293,
2011-02-24, 00:16:05,VALID,1003.73,VALID,0,INVALID,163.769,VALID,0,VALID,23.0224,VALID,216,VALID,0.260156,
2011-02-24, 00:17:05,VALID,1003.7,VALID,0,INVALID,163.746,VALID,0,VALID,23.0206,VALID,312,VALID,0.477344,
2011-02-24, 00:18:05,VALID,1003.67,VALID,0,INVALID,163.777,VALID,0,VALID,23.0012,VALID,308,VALID,0.386719,
2011-02-24, 00:19:05,VALID,1003.6,VALID,0.5,INVALID,163.769,VALID,0,VALID,23.0224,VALID,286,VALID,0.946484,
2011-02-24, 00:20:05,VALID,1003.62,VALID,0,INVALID,163.762,VALID,0,VALID,23.0418,VALID,307,VALID,0.927344,
2011-02-24, 00:21:05,VALID,1003.58,VALID,0,INVALID,163.762,VALID,0,VALID,23.0012,VALID,292,VALID,0.51875,
2011-02-24, 00:22:05,VALID,1003.56,VALID,0,INVALID,163.769,VALID,0,VALID,23.0418,VALID,243,VALID,0.740625,
2011-02-24, 00:23:05,VALID,1003.57,VALID,0,INVALID,163.739,VALID,0,VALID,23.0613,VALID,294,VALID,0.773828,
2011-02-24, 00:24:05,VALID,1003.54,VALID,0,INVALID,163.762,VALID,0,VALID,23.0418,VALID,212,VALID,0.394141,
2011-02-24, 00:25:05,VALID,1003.53,VALID,0,INVALID,163.762,VALID,0,VALID,23.0418,VALID,308,VALID,0.957422,
2011-02-24, 00:26:05,VALID,1003.52,VALID,0.5,INVALID,163.784,VALID,0,VALID,23.0401,VALID,299,VALID,1.5207,
2011-02-24, 00:27:05,VALID,1003.55,VALID,0,INVALID,163.769,VALID,0.100563,VALID,23.0401,VALID,335,VALID,0.441016,
2011-02-24, 00:28:05,VALID,1003.54,VALID,0,INVALID,163.769,VALID,0,VALID,23.0401,VALID,286,VALID,0.891016,
2011-02-24, 00:29:05,VALID,1003.52,VALID,0,INVALID,163.769,VALID,0.100563,VALID,23.0401,VALID,299,VALID,0.201953,
2011-02-24, 00:30:05,VALID,1003.52,VALID,0,INVALID,163.777,VALID,0.100563,VALID,22.9994,VALID,317,VALID,0.289453,
2011-02-24, 00:31:05,VALID,1003.5,VALID,0,INVALID,163.784,VALID,0.100563,VALID,23.0189,VALID,285,VALID,0.837109,
2011-02-24, 00:32:05,VALID,1003.53,VALID,0.5,INVALID,163.762,VALID,0.100563,VALID,23.0206,VALID,338,VALID,0.464063,
2011-02-24, 00:33:05,VALID,1003.53,VALID,0,INVALID,163.769,VALID,0.100563,VALID,23.0206,VALID,12,VALID,0.219531,
2011-02-24, 00:34:05,VALID,1003.49,VALID,0,INVALID,163.807,VALID,0.100563,VALID,23.0418,VALID,272,VALID,0.508594,
2011-02-24, 00:35:05,VALID,1003.48,VALID,0,INVALID,163.792,VALID,0.100563,VALID,22.98,VALID,275,VALID,0.538281,
2011-02-24, 00:36:05,VALID,1003.44,VALID,0,INVALID,163.777,VALID,0.100563,VALID,23.0012,VALID,273,VALID,0.503906,
2011-02-24, 00:37:05,VALID,1003.45,VALID,0,INVALID,163.769,VALID,0.100563,VALID,22.9817,VALID,314,VALID,1.13633,
2011-02-24, 00:38:05,VALID,1003.41,VALID,0,INVALID,163.784,VALID,0.100563,VALID,22.9622,VALID,312,VALID,0.820313,
2011-02-24, 00:39:05,VALID,1003.42,VALID,0,INVALID,163.769,VALID,0.100563,VALID,22.941,VALID,305,VALID,0.899609,
2011-02-24, 00:40:05,VALID,1003.37,VALID,0,INVALID,163.784,VALID,0.100563,VALID,22.9216,VALID,285,VALID,0.978516,
2011-02-24, 00:41:05,VALID,1003.32,VALID,0,INVALID,163.792,VALID,0,VALID,22.9233,VALID,304,VALID,1.11172,
2011-02-24, 00:42:05,VALID,1003.25,VALID,0,INVALID,163.777,VALID,0,VALID,22.9445,VALID,308,VALID,0.380078,
2011-02-24, 00:43:05,VALID,1003.21,VALID,0,INVALID,163.777,VALID,0,VALID,22.9445,VALID,285,VALID,0.491406,
2011-02-24, 00:44:05,VALID,1003.19,VALID,0.5,INVALID,163.769,VALID,0,VALID,22.964,VALID,305,VALID,0.275,
2011-02-24, 00:45:05,VALID,1003.15,VALID,0,INVALID,163.784,VALID,0,VALID,22.9622,VALID,288,VALID,1.31797,
2011-02-24, 00:46:05,VALID,1003.13,VALID,0,INVALID,163.777,VALID,0,VALID,23.0224,VALID,271,VALID,0.825391,
2011-02-24, 00:47:05,VALID,1003.08,VALID,0,INVALID,163.762,VALID,0,VALID,23.0224,VALID,295,VALID,0.866016,
2011-02-24, 00:48:05,VALID,1003.07,VALID,0,INVALID,163.762,VALID,0,VALID,23.0418,VALID,295,VALID,0.754687,
2011-02-24, 00:49:05,VALID,1003.02,VALID,0,INVALID,163.792,VALID,0,VALID,23.0206,VALID,284,VALID,0.494922,
2011-02-24, 00:50:05,VALID,1002.95,VALID,0,INVALID,163.777,VALID,0,VALID,23.0613,VALID,274,VALID,0.790625,
2011-02-24, 00:51:05,VALID,1002.89,VALID,0,INVALID,163.769,VALID,0,VALID,23.0807,VALID,298,VALID,0.415625,
2011-02-24, 00:52:05,VALID,1002.86,VALID,0,INVALID,163.769,VALID,0,VALID,23.0807,VALID,306,VALID,0.762891,
2011-02-24, 00:53:05,VALID,1002.85,VALID,0,INVALID,163.754,VALID,0,VALID,23.0807,VALID,299,VALID,0.453906,
2011-02-24, 00:54:05,VALID,1002.81,VALID,0,INVALID,163.754,VALID,0,VALID,23.0807,VALID,292,VALID,0.374609,
2011-02-24, 00:55:05,VALID,1002.82,VALID,0,INVALID,163.762,VALID,0,VALID,23.1002,VALID,291,VALID,0.605469,
2011-02-24, 00:56:05,VALID,1002.75,VALID,0,INVALID,163.762,VALID,0,VALID,23.0984,VALID,292,VALID,0.427344,
2011-02-24, 00:57:05,VALID,1002.74,VALID,0,INVALID,163.762,VALID,0,VALID,23.1179,VALID,271,VALID,0.533594,
2011-02-24, 00:58:05,VALID,1002.7,VALID,0,INVALID,163.769,VALID,0,VALID,23.1568,VALID,303,VALID,0.633984,
2011-02-24, 00:59:05,VALID,1002.72,VALID,0,INVALID,163.754,VALID,0,VALID,23.1975,VALID,290,VALID,0.404297,
2011-02-24, 01:00:05,VALID,1002.68,VALID,0,INVALID,163.777,VALID,0,VALID,23.217,VALID,310,VALID,0.672266,
2011-02-24, 01:01:05,VALID,1002.67,VALID,0,INVALID,163.746,VALID,0,VALID,23.2364,VALID,308,VALID,0.253516,
2011-02-24, 01:02:05,VALID,1002.63,VALID,0,INVALID,163.754,VALID,0,VALID,23.2347,VALID,344,VALID,0.432031,
2011-02-24, 01:03:05,VALID,1002.62,VALID,0,INVALID,163.777,VALID,0,VALID,23.2754,VALID,309,VALID,1.37148,
2011-02-24, 01:04:05,VALID,1002.57,VALID,0,INVALID,163.754,VALID,0,VALID,23.2948,VALID,288,VALID,0.783203,
2011-02-24, 01:05:05,VALID,1002.55,VALID,0,INVALID,163.754,VALID,0,VALID,23.2736,VALID,292,VALID,0.660156,
2011-02-24, 01:06:05,VALID,1002.53,VALID,0,INVALID,163.762,VALID,0,VALID,23.3143,VALID,291,VALID,0.479297,
2011-02-24, 01:07:05,VALID,1002.53,VALID,0,INVALID,163.754,VALID,0.100563,VALID,23.3143,VALID,277,VALID,0.434375,
2011-02-24, 01:08:05,VALID,1002.55,VALID,0,INVALID,163.723,VALID,0,VALID,23.3125,VALID,326,VALID,0.441797,
2011-02-24, 01:09:05,VALID,1002.56,VALID,0,INVALID,163.746,VALID,0,VALID,23.3532,VALID,303,VALID,0.273828,
2011-02-24, 01:10:05,VALID,1002.57,VALID,0,INVALID,163.754,VALID,0,VALID,23.3532,VALID,308,VALID,0.459375,
2011-02-24, 01:11:05,VALID,1002.55,VALID,0,INVALID,163.746,VALID,0,VALID,23.3709,VALID,317,VALID,0.763672,
2011-02-24, 01:12:05,VALID,1002.56,VALID,0,INVALID,163.723,VALID,0,VALID,23.4311,VALID,286,VALID,0.732031,
2011-02-24, 01:13:05,VALID,1002.53,VALID,0,INVALID,163.716,VALID,0,VALID,23.4311,VALID,302,VALID,1.14688,
2011-02-24, 01:14:05,VALID,1002.55,VALID,0,INVALID,163.723,VALID,0,VALID,23.4505,VALID,298,VALID,0.858203,
2011-02-24, 01:15:05,VALID,1002.53,VALID,0,INVALID,163.739,VALID,0,VALID,23.4487,VALID,292,VALID,1.38633,
2011-02-24, 01:16:05,VALID,1002.51,VALID,0,INVALID,163.739,VALID,0,VALID,23.4894,VALID,297,VALID,1.77148,
2011-02-24, 01:17:05,VALID,1002.5,VALID,0,INVALID,163.746,VALID,0,VALID,23.4894,VALID,292,VALID,1.15508,
2011-02-24, 01:18:05,VALID,1002.49,VALID,0,INVALID,163.731,VALID,0,VALID,23.4682,VALID,305,VALID,0.819531,
2011-02-24, 01:19:05,VALID,1002.49,VALID,0,INVALID,163.731,VALID,0,VALID,23.5089,VALID,293,VALID,0.953516,
2011-02-24, 01:20:05,VALID,1002.51,VALID,0,INVALID,163.716,VALID,0,VALID,23.5284,VALID,284,VALID,0.878125,
2011-02-24, 01:21:05,VALID,1002.5,VALID,0,INVALID,163.723,VALID,0,VALID,23.5284,VALID,330,VALID,0.374219,
2011-02-24, 01:22:05,VALID,1002.47,VALID,0,INVALID,163.701,VALID,0,VALID,23.5089,VALID,305,VALID,0.496484,
2011-02-24, 01:23:05,VALID,1002.46,VALID,0,INVALID,163.731,VALID,0,VALID,23.5284,VALID,316,VALID,0.163281,
2011-02-24, 01:24:05,VALID,1002.45,VALID,0,INVALID,163.701,VALID,0,VALID,23.5089,VALID,294,VALID,1.40273,
2011-02-24, 01:25:05,VALID,1002.44,VALID,0,INVALID,163.731,VALID,0,VALID,23.4912,VALID,318,VALID,0.398047,
2011-02-24, 01:26:05,VALID,1002.47,VALID,0,INVALID,163.746,VALID,0.100563,VALID,23.408,VALID,299,VALID,0.910937,
2011-02-24, 01:27:05,VALID,1002.46,VALID,0,INVALID,163.723,VALID,0,VALID,23.3904,VALID,327,VALID,0.440625,
2011-02-24, 01:28:05,VALID,1002.46,VALID,0,INVALID,163.762,VALID,0.100563,VALID,23.3514,VALID,72,VALID,0.528125,
2011-02-24, 01:29:05,VALID,1002.45,VALID,0,INVALID,163.754,VALID,0,VALID,23.3514,VALID,295,VALID,1.42031,
2011-02-24, 01:30:05,VALID,1002.44,VALID,0,INVALID,163.754,VALID,0.100563,VALID,23.2931,VALID,316,VALID,0.388672,
2011-02-24, 01:31:05,VALID,1002.43,VALID,0,INVALID,163.746,VALID,0,VALID,23.2736,VALID,319,VALID,1.0293,
2011-02-24, 01:32:05,VALID,1002.38,VALID,0,INVALID,163.746,VALID,0.100563,VALID,23.2347,VALID,286,VALID,1.4832,
2011-02-24, 01:33:05,VALID,1002.36,VALID,0,INVALID,163.769,VALID,0.100563,VALID,23.1745,VALID,258,VALID,0.270703,
2011-02-24, 01:34:05,VALID,1002.36,VALID,0,INVALID,163.739,VALID,0,VALID,23.1568,VALID,352,VALID,1.07891,
2011-02-24, 01:35:05,VALID,1002.35,VALID,0,INVALID,163.754,VALID,0,VALID,23.1179,VALID,277,VALID,0.533203,
2011-02-24, 01:36:05,VALID,1002.33,VALID,0,INVALID,163.754,VALID,0,VALID,23.1179,VALID,278,VALID,0.214062,
2011-02-24, 01:37:05,VALID,1002.31,VALID,0,INVALID,163.762,VALID,0,VALID,23.0984,VALID,283,VALID,1.54258,
2011-02-24, 01:38:05,VALID,1002.34,VALID,0,INVALID,163.769,VALID,0,VALID,23.0401,VALID,289,VALID,1.31914,
2011-02-24, 01:39:05,VALID,1002.31,VALID,0,INVALID,163.731,VALID,0.100563,VALID,22.9994,VALID,296,VALID,0.941797,
2011-02-24, 01:40:05,VALID,1002.3,VALID,0,INVALID,163.769,VALID,0,VALID,23.0206,VALID,290,VALID,1.2457,
2011-02-24, 01:41:05,VALID,1002.28,VALID,0,INVALID,163.769,VALID,0,VALID,23.0029,VALID,285,VALID,0.690234,
2011-02-24, 01:42:05,VALID,1002.27,VALID,0,INVALID,163.792,VALID,0,VALID,22.9834,VALID,271,VALID,1.28594,
2011-02-24, 01:43:05,VALID,1002.23,VALID,0,INVALID,163.792,VALID,0,VALID,22.9834,VALID,282,VALID,1.22031,
2011-02-24, 01:44:05,VALID,1002.2,VALID,0,INVALID,163.777,VALID,0,VALID,22.9428,VALID,311,VALID,0.594922,
2011-02-24, 01:45:05,VALID,1002.23,VALID,0,INVALID,163.8,VALID,0,VALID,22.964,VALID,274,VALID,0.996094,
2011-02-24, 01:46:05,VALID,1002.19,VALID,0,INVALID,163.777,VALID,0,VALID,22.9834,VALID,299,VALID,1.31328,
2011-02-24, 01:47:05,VALID,1002.22,VALID,0,INVALID,163.769,VALID,0,VALID,22.9622,VALID,294,VALID,0.941797,
2011-02-24, 01:48:05,VALID,1002.21,VALID,0,INVALID,163.739,VALID,0,VALID,22.9834,VALID,290,VALID,1.33555,
2011-02-24, 01:49:05,VALID,1002.24,VALID,0,INVALID,163.784,VALID,0,VALID,22.9834,VALID,307,VALID,0.815234,
2011-02-24, 01:50:05,VALID,1002.24,VALID,0,INVALID,163.762,VALID,0,VALID,22.9622,VALID,265,VALID,0.635156,
2011-02-24, 01:51:05,VALID,1002.24,VALID,0,INVALID,163.784,VALID,0,VALID,23.0224,VALID,284,VALID,0.9875,
2011-02-24, 01:52:05,VALID,1002.21,VALID,0,INVALID,163.769,VALID,0,VALID,23.0029,VALID,291,VALID,1.46172,
2011-02-24, 01:53:05,VALID,1002.21,VALID,0,INVALID,163.754,VALID,0,VALID,23.0029,VALID,292,VALID,1.66133,
2011-02-24, 01:54:05,VALID,1002.19,VALID,0,INVALID,163.762,VALID,0,VALID,23.0206,VALID,294,VALID,1.24414,
2011-02-24, 01:55:05,VALID,1002.13,VALID,0,INVALID,163.777,VALID,0,VALID,23.0418,VALID,292,VALID,2.41445,
2011-02-24, 01:56:05,VALID,1002.09,VALID,0,INVALID,163.777,VALID,0,VALID,23.079,VALID,258,VALID,0.646875,
2011-02-24, 01:57:05,VALID,1002.09,VALID,0,INVALID,163.769,VALID,0.100563,VALID,23.1002,VALID,308,VALID,1.30859,
2011-02-24, 01:58:05,VALID,1002.1,VALID,0,INVALID,163.746,VALID,0,VALID,23.1179,VALID,309,VALID,1.44102,
2011-02-24, 01:59:05,VALID,1002.06,VALID,0,INVALID,163.762,VALID,0,VALID,23.1568,VALID,291,VALID,1.54062,
2011-02-24, 02:00:05,VALID,1002.1,VALID,0,INVALID,163.739,VALID,0,VALID,23.1957,VALID,293,VALID,1.26563,
2011-02-24, 02:01:05,VALID,1002.08,VALID,0,INVALID,163.769,VALID,0,VALID,23.2152,VALID,295,VALID,1.34531,
2011-02-24, 02:02:05,VALID,1002.06,VALID,0,INVALID,163.746,VALID,0,VALID,23.2524,VALID,315,VALID,1.08008,
2011-02-24, 02:03:05,VALID,1002.07,VALID,0.5,INVALID,163.754,VALID,0,VALID,23.2913,VALID,251,VALID,1.0957,
2011-02-24, 02:04:05,VALID,1002.08,VALID,0,INVALID,163.746,VALID,0.100563,VALID,23.3709,VALID,307,VALID,1.76016,
2011-02-24, 02:05:05,VALID,1002.06,VALID,0,INVALID,163.746,VALID,0.100563,VALID,23.3691,VALID,282,VALID,3.72305,
2011-02-24, 02:06:05,VALID,1002.07,VALID,0,INVALID,163.731,VALID,0.100563,VALID,23.4505,VALID,281,VALID,1.35195,
2011-02-24, 02:07:05,VALID,1002.04,VALID,0,INVALID,163.716,VALID,0,VALID,23.4487,VALID,287,VALID,2.325,
2011-02-24, 02:08:05,VALID,1002.07,VALID,0,INVALID,163.739,VALID,0,VALID,23.4682,VALID,296,VALID,2.09063,
2011-02-24, 02:09:05,VALID,1002.05,VALID,0,INVALID,163.723,VALID,0,VALID,23.4877,VALID,287,VALID,1.09297,
2011-02-24, 02:10:05,VALID,1002.02,VALID,0,INVALID,163.716,VALID,0.100563,VALID,23.5266,VALID,294,VALID,1.8082,
2011-02-24, 02:11:05,VALID,1002,VALID,0,INVALID,163.723,VALID,0.100563,VALID,23.546,VALID,290,VALID,1.50234,
2011-02-24, 02:12:05,VALID,1001.96,VALID,0,INVALID,163.701,VALID,0,VALID,23.546,VALID,276,VALID,2.16211,
2011-02-24, 02:13:05,VALID,1001.97,VALID,0,INVALID,163.746,VALID,0.100563,VALID,23.5053,VALID,299,VALID,0.942187,
2011-02-24, 02:14:05,VALID,1001.92,VALID,0,INVALID,163.739,VALID,0,VALID,23.5266,VALID,285,VALID,1.32383,
2011-02-24, 02:15:05,VALID,1001.89,VALID,0,INVALID,163.723,VALID,0,VALID,23.4859,VALID,289,VALID,2.25625,
2011-02-24, 02:16:05,VALID,1001.87,VALID,0,INVALID,163.739,VALID,0.100563,VALID,23.4664,VALID,289,VALID,1.2582,
2011-02-24, 02:17:05,VALID,1001.89,VALID,0,INVALID,163.708,VALID,0,VALID,23.4682,VALID,289,VALID,1.86914,
2011-02-24, 02:18:05,VALID,1001.81,VALID,0,INVALID,163.731,VALID,0,VALID,23.4487,VALID,283,VALID,2.36094,
2011-02-24, 02:19:05,VALID,1001.86,VALID,0,INVALID,163.746,VALID,0.100563,VALID,23.4098,VALID,287,VALID,1.44258,
2011-02-24, 02:20:05,VALID,1001.83,VALID,0,INVALID,163.731,VALID,0.100563,VALID,23.4098,VALID,257,VALID,1.11133,
2011-02-24, 02:21:05,VALID,1001.81,VALID,0,INVALID,163.731,VALID,0,VALID,23.3886,VALID,266,VALID,1.39023,
2011-02-24, 02:22:05,VALID,1001.85,VALID,0,INVALID,163.723,VALID,0.100563,VALID,23.3904,VALID,286,VALID,1.71992,
2011-02-24, 02:23:05,VALID,1001.78,VALID,0,INVALID,163.716,VALID,0,VALID,23.3691,VALID,303,VALID,2.28477,
2011-02-24, 02:24:05,VALID,1001.8,VALID,0,INVALID,163.739,VALID,0.100563,VALID,23.3691,VALID,292,VALID,1.43164,
2011-02-24, 02:25:05,VALID,1001.73,VALID,0,INVALID,163.746,VALID,0.100563,VALID,23.4098,VALID,303,VALID,2.66563,
2011-02-24, 02:26:05,VALID,1001.81,VALID,0,INVALID,163.723,VALID,0,VALID,23.4116,VALID,256,VALID,1.63437,
2011-02-24, 02:27:05,VALID,1001.8,VALID,0,INVALID,163.739,VALID,0,VALID,23.4116,VALID,229,VALID,1.30469,
2011-02-24, 02:28:05,VALID,1001.78,VALID,0,INVALID,163.762,VALID,0,VALID,23.4328,VALID,265,VALID,1.60312,
2011-02-24, 02:29:05,VALID,1001.84,VALID,0,INVALID,163.716,VALID,0,VALID,23.4311,VALID,283,VALID,0.955078,
2011-02-24, 02:30:05,VALID,1001.81,VALID,0,INVALID,163.685,VALID,0,VALID,23.4311,VALID,290,VALID,2.70977,
2011-02-24, 02:31:05,VALID,1001.8,VALID,0,INVALID,163.754,VALID,0,VALID,23.4116,VALID,292,VALID,2.02852,
2011-02-24, 02:32:05,VALID,1001.83,VALID,0,INVALID,163.731,VALID,0,VALID,23.4293,VALID,283,VALID,2.05312,
2011-02-24, 02:33:05,VALID,1001.79,VALID,0,INVALID,163.739,VALID,0,VALID,23.4505,VALID,290,VALID,1.65586,
2011-02-24, 02:34:05,VALID,1001.78,VALID,0,INVALID,163.731,VALID,0,VALID,23.4505,VALID,287,VALID,2.90703,
2011-02-24, 02:35:05,VALID,1001.73,VALID,0,INVALID,163.716,VALID,0,VALID,23.4487,VALID,287,VALID,1.72227,
2011-02-24, 02:36:05,VALID,1001.72,VALID,0,INVALID,163.723,VALID,0,VALID,23.4894,VALID,285,VALID,2.18086,
2011-02-24, 02:37:05,VALID,1001.7,VALID,0,INVALID,163.701,VALID,0,VALID,23.4912,VALID,289,VALID,1.75469,
2011-02-24, 02:38:05,VALID,1001.7,VALID,0,INVALID,163.716,VALID,0,VALID,23.47,VALID,275,VALID,1.41484,
2011-02-24, 02:39:05,VALID,1001.65,VALID,0,INVALID,163.708,VALID,0,VALID,23.4912,VALID,297,VALID,1.56172,
2011-02-24, 02:40:05,VALID,1001.65,VALID,0,INVALID,163.739,VALID,0,VALID,23.4894,VALID,269,VALID,1.37383,
2011-02-24, 02:41:05,VALID,1001.61,VALID,0,INVALID,163.708,VALID,0,VALID,23.4877,VALID,302,VALID,2.57227,
2011-02-24, 02:42:05,VALID,1001.65,VALID,0,INVALID,163.739,VALID,0,VALID,23.5071,VALID,289,VALID,1.86719,
2011-02-24, 02:43:05,VALID,1001.63,VALID,0,INVALID,163.739,VALID,0,VALID,23.5478,VALID,293,VALID,3.18945,
2011-02-24, 02:44:05,VALID,1001.63,VALID,0,INVALID,163.701,VALID,0,VALID,23.5266,VALID,300,VALID,1.63398,
2011-02-24, 02:45:04,VALID,1001.58,VALID,0,INVALID,163.716,VALID,0,VALID,23.5655,VALID,291,VALID,2.14687,
2011-02-24, 02:46:04,VALID,1001.59,VALID,0,INVALID,163.739,VALID,0,VALID,23.585,VALID,261,VALID,1.23516,
2011-02-24, 02:47:04,VALID,1001.58,VALID,0,INVALID,163.723,VALID,0,VALID,23.6257,VALID,285,VALID,1.37578,
2011-02-24, 02:48:04,VALID,1001.61,VALID,0,INVALID,163.731,VALID,0,VALID,23.6239,VALID,282,VALID,1.1543,
2011-02-24, 02:49:04,VALID,1001.61,VALID,0,INVALID,163.723,VALID,0,VALID,23.6628,VALID,306,VALID,1.61602,
2011-02-24, 02:50:04,VALID,1001.58,VALID,0,INVALID,163.731,VALID,0,VALID,23.6416,VALID,276,VALID,1.67734,
2011-02-24, 02:51:04,VALID,1001.59,VALID,0,INVALID,163.693,VALID,0,VALID,23.6823,VALID,301,VALID,1.14336,
2011-02-24, 02:52:04,VALID,1001.57,VALID,0,INVALID,163.731,VALID,0,VALID,23.723,VALID,276,VALID,1.78516,
2011-02-24, 02:53:04,VALID,1001.54,VALID,0,INVALID,163.739,VALID,0,VALID,23.723,VALID,294,VALID,2.0957,
2011-02-24, 02:54:04,VALID,1001.55,VALID,0,INVALID,163.731,VALID,0,VALID,23.7212,VALID,248,VALID,0.895312,
2011-02-24, 02:55:04,VALID,1001.53,VALID,0,INVALID,163.708,VALID,0,VALID,23.7212,VALID,304,VALID,2.15,
2011-02-24, 02:56:04,VALID,1001.5,VALID,0,INVALID,163.716,VALID,0,VALID,23.7425,VALID,260,VALID,1.44883,
2011-02-24, 02:57:04,VALID,1001.49,VALID,0,INVALID,163.708,VALID,0,VALID,23.7407,VALID,276,VALID,1.64531,
2011-02-24, 02:58:04,VALID,1001.46,VALID,0,INVALID,163.708,VALID,0,VALID,23.7407,VALID,285,VALID,0.99375,
2011-02-24, 02:59:04,VALID,1001.5,VALID,0,INVALID,163.716,VALID,0,VALID,23.7194,VALID,266,VALID,1.06953,
2011-02-24, 03:00:04,VALID,1001.48,VALID,0,INVALID,163.723,VALID,0,VALID,23.7017,VALID,288,VALID,2.28086,
2011-02-24, 03:01:04,VALID,1001.52,VALID,0,INVALID,163.731,VALID,0,VALID,23.7212,VALID,267,VALID,1.18672,
2011-02-24, 03:02:04,VALID,1001.52,VALID,0,INVALID,163.701,VALID,0,VALID,23.7,VALID,275,VALID,0.961719,
2011-02-24, 03:03:04,VALID,1001.51,VALID,0,INVALID,163.708,VALID,0,VALID,23.7212,VALID,286,VALID,1.66211,
2011-02-24, 03:04:04,VALID,1001.52,VALID,0,INVALID,163.723,VALID,0,VALID,23.7212,VALID,278,VALID,1.01406,
2011-02-24, 03:05:04,VALID,1001.51,VALID,0,INVALID,163.739,VALID,0,VALID,23.6805,VALID,288,VALID,2.37461,
2011-02-24, 03:06:04,VALID,1001.5,VALID,0,INVALID,163.701,VALID,0,VALID,23.6823,VALID,285,VALID,2.00664,
2011-02-24, 03:07:04,VALID,1001.51,VALID,0,INVALID,163.693,VALID,0,VALID,23.7017,VALID,264,VALID,0.617969,
2011-02-24, 03:08:04,VALID,1001.52,VALID,0,INVALID,163.708,VALID,0,VALID,23.6823,VALID,304,VALID,2.17695,
2011-02-24, 03:09:04,VALID,1001.6,VALID,0,INVALID,163.731,VALID,0,VALID,23.6841,VALID,288,VALID,3.12148,
2011-02-24, 03:10:04,VALID,1001.61,VALID,0,INVALID,163.708,VALID,0,VALID,23.6823,VALID,299,VALID,2.7418,
2011-02-24, 03:11:04,VALID,1001.61,VALID,0,INVALID,163.693,VALID,0,VALID,23.7035,VALID,298,VALID,2.09141,
2011-02-24, 03:12:04,VALID,1001.62,VALID,0,INVALID,163.701,VALID,0,VALID,23.6823,VALID,293,VALID,1.86133,
2011-02-24, 03:13:04,VALID,1001.64,VALID,0,INVALID,163.731,VALID,0,VALID,23.7035,VALID,289,VALID,1.80742,
2011-02-24, 03:14:04,VALID,1001.64,VALID,0,INVALID,163.701,VALID,0,VALID,23.7035,VALID,301,VALID,1.97383,
2011-02-24, 03:15:04,VALID,1001.6,VALID,0,INVALID,163.708,VALID,0,VALID,23.6859,VALID,299,VALID,2.91875,
2011-02-24, 03:16:04,VALID,1001.58,VALID,0,INVALID,163.716,VALID,0,VALID,23.7053,VALID,294,VALID,2.47383,
2011-02-24, 03:17:04,VALID,1001.65,VALID,0,INVALID,163.754,VALID,0,VALID,23.6646,VALID,285,VALID,3.12578,
2011-02-24, 03:18:04,VALID,1001.65,VALID,0,INVALID,163.701,VALID,0,VALID,23.7035,VALID,293,VALID,2.36797,
2011-02-24, 03:19:04,VALID,1001.66,VALID,0,INVALID,163.723,VALID,0,VALID,23.7035,VALID,295,VALID,1.31758,
2011-02-24, 03:20:04,VALID,1001.69,VALID,0,INVALID,163.701,VALID,0,VALID,23.7035,VALID,293,VALID,3.61875,
2011-02-24, 03:21:04,VALID,1001.68,VALID,0,INVALID,163.754,VALID,0,VALID,23.723,VALID,296,VALID,2.08945,
2011-02-24, 03:22:04,VALID,1001.68,VALID,0,INVALID,163.723,VALID,0,VALID,23.723,VALID,299,VALID,1.77852,
2011-02-24, 03:23:04,VALID,1001.68,VALID,0,INVALID,163.723,VALID,0,VALID,23.7425,VALID,290,VALID,1.34609,
2011-02-24, 03:24:04,VALID,1001.67,VALID,0,INVALID,163.762,VALID,0,VALID,23.7035,VALID,279,VALID,2.00781,
2011-02-24, 03:25:04,VALID,1001.68,VALID,0,INVALID,163.716,VALID,0,VALID,23.723,VALID,290,VALID,1.53203,
2011-02-24, 03:26:04,VALID,1001.67,VALID,0,INVALID,163.716,VALID,0,VALID,23.7017,VALID,302,VALID,1.90195,
2011-02-24, 03:27:04,VALID,1001.68,VALID,0,INVALID,163.716,VALID,0,VALID,23.7017,VALID,304,VALID,1.68945,
2011-02-24, 03:28:04,VALID,1001.69,VALID,0,INVALID,163.693,VALID,0,VALID,23.7212,VALID,314,VALID,1.47812,
2011-02-24, 03:29:04,VALID,1001.7,VALID,0,INVALID,163.731,VALID,0,VALID,23.723,VALID,279,VALID,1.62383,
2011-02-24, 03:30:04,VALID,1001.71,VALID,0,INVALID,163.731,VALID,0,VALID,23.7017,VALID,288,VALID,1.70039,
2011-02-24, 03:31:04,VALID,1001.66,VALID,0,INVALID,163.731,VALID,0.100563,VALID,23.7212,VALID,305,VALID,2.47187,
2011-02-24, 03:32:04,VALID,1001.67,VALID,0,INVALID,163.708,VALID,0.100563,VALID,23.7017,VALID,283,VALID,2.38516,
2011-02-24, 03:33:04,VALID,1001.66,VALID,0,INVALID,163.723,VALID,0,VALID,23.7212,VALID,285,VALID,2.08203,
2011-02-24, 03:34:04,VALID,1001.64,VALID,0,INVALID,163.731,VALID,0,VALID,23.7407,VALID,300,VALID,1.69258,
2011-02-24, 03:35:04,VALID,1001.64,VALID,0,INVALID,163.716,VALID,0.100563,VALID,23.7389,VALID,298,VALID,1.78594,
2011-02-24, 03:36:04,VALID,1001.63,VALID,0,INVALID,163.708,VALID,0.100563,VALID,23.7796,VALID,299,VALID,2.40664,
2011-02-24, 03:37:04,VALID,1001.61,VALID,0,INVALID,163.701,VALID,0,VALID,23.7796,VALID,284,VALID,2.90469,
2011-02-24, 03:38:04,VALID,1001.62,VALID,0,INVALID,163.739,VALID,0,VALID,23.7778,VALID,291,VALID,3.27227,